This is the latest recevied weather packets stored in our database for station/object WD8INF-9. If no packets are shown the sender has not sent any weather packets the latest 10 day(s).
| Time | Temp. | Humidity | Pressure | Rain* | Wind** | Luminosity | Snow |
|---|---|---|---|---|---|---|---|
| 1777730571 | 15.56° C | - | 1017 hPa | 0 mm | - | - | - |
| 1777730271 | 12.78° C | - | 1017 hPa | 0 mm | - | - | - |
| 1777729971 | 14.44° C | - | 1016.9 hPa | 0 mm | - | - | - |
| 1777729671 | 15° C | - | 1017 hPa | 0 mm | - | - | - |
| 1777729371 | 16.11° C | - | 1016.9 hPa | 0 mm | - | - | - |
| 1777729070 | 13.89° C | - | 1016.9 hPa | 0 mm | - | - | - |
| 1777728770 | 13.89° C | - | 1016.9 hPa | 0 mm | - | - | - |
| 1777728470 | 13.33° C | - | 1016.9 hPa | 0 mm | - | - | - |
| 1777728170 | 12.22° C | - | 1017.1 hPa | 0 mm | - | - | - |
| 1777727869 | 11.67° C | - | 1017 hPa | 0 mm | - | - | - |
| 1777727569 | 11.67° C | - | 1016.8 hPa | 0 mm | - | - | - |
| 1777727268 | 11.11° C | - | 1016.9 hPa | 0 mm | - | - | - |
| 1777726967 | 11.11° C | - | 1017 hPa | 0 mm | - | - | - |
| 1777726667 | 11.11° C | - | 1016.8 hPa | 0 mm | - | - | - |
| 1777726366 | 10.56° C | - | 1016.9 hPa | 0 mm | - | - | - |
| 1777726065 | 12.22° C | - | 1016.8 hPa | 0 mm | - | - | - |
| 1777725765 | 12.78° C | - | 1016.9 hPa | 0 mm | - | - | - |
| 1777725465 | 12.22° C | - | 1016.8 hPa | 0 mm | - | - | - |
| 1777725165 | 10.56° C | - | 1016.9 hPa | 0 mm | - | - | - |
| 1777724865 | 10° C | - | 1016.9 hPa | 0 mm | - | - | - |
| 1777724564 | 10° C | - | 1016.6 hPa | 0 mm | - | - | - |
| 1777724264 | 10.56° C | - | 1016.8 hPa | 0 mm | - | - | - |
| 1777723964 | 9.44° C | - | 1016.9 hPa | 0 mm | - | - | - |
| 1777723664 | 7.22° C | - | 1016.7 hPa | 0 mm | - | - | - |
| 1777723363 | 8.89° C | - | 1016.6 hPa | 0 mm | - | - | - |
* Rain since midnight (hover to see other rain measurements)
** Current wind speed in m/s (hover to see current wind gust speed)